NOAA 16 DEB, 41295

Orbit data source: Space-Track

NOAA 16 DEB, 41295 is space debris in SSO originally from a launch on Thu, 21 Sep 2000 UTC launched from the Air Force Western Test Range (AFWTR). Debris objects in space refer to the collection of defunct objects orbiting the Earth. Examples of debris include non-operational satellites, rocket bodies, and fragments generated from explosions, collisions, or faulty payload assembly.

Loading next visibility...
Identifier
41295, 2000-055GX
Orbit
SSO
Country
Flag of USUS
Related business
Manufacturer
Unknown
Mission
Spacecraft
Bus & Motor
Unknown
Mass
Unknown
Launch date (UTC)
2000-09-21 (26 years ago)
Launch vehicle
Unknown
Launch site
Air Force Western Test Range (AFWTR)
Object type
Payload
Rocket body
Debris
Shape & HBR
Unknown shape, 0.1 m
Radar Cross Section
Medium (>0.1 m² and <1 m²)

Expand to show TLE details & history
Last TLE update: 3 days ago

TLE from 3 days ago
0 NOAA 16 DEB
1 41295U 00055GX  26226.33214953  .00001317  00000-0  61638-3 0  9998
2 41295  98.6721 261.4701 0022983  32.0841 328.1730 14.21789187548200
Epoch: 2026-08-14T07:58Z
TLE epoch observation values (Epoch: 2026-08-14T07:58:17.719Z)
Latitude
-0.00004°
Longitude
179.13738°
Altitude
808.179 km
Speed
7.457 km/s
True Right ascension
17h 25m 52s
True Declination
0° 00' 00"
Sunlit
Object was in daylight at epoch
Visualization orbit readout
Latitude
Unknown
Longitude
Unknown
Altitude
Unknown
Speed
Unknown
Apparent Right ascension
Unknown
Apparent Declination
Unknown
Sunlit
N/A
Visualization observer readout
Local Sidereal Time
16:11:11
Azimuth
Unknown
Elevation
Unknown
Doppler factor
Unknown
Orbital elements
Apogee altitude
832.998 km
Perigee altitude
799.927 km
Semi-major axis
7,194.6 km
Eccentricity
0.0023
Inclination
98.6721°
RAAN
261.4701°
Arg. of periapsis
32.0841°
True anomaly
328.03377°
Mean anomaly
328.173°
Eccentric anomaly
328.10342°
Mean motion
3.55659 °/min
Orbital period
101.22 mins
BSTAR
0.00061638
Loading maneuver chart data...
Computing Atmospheric mass density...
Loading historical data...
Loading historical data...
Loading historical data...
Loading historical data...
Loading historical data...
Loading historical data...
Loading historical data...

Documentation

Showing up to 5 results
|